| time (UTC) | temp F | wind direction | speed MPH | gust MPH | rain 1hr in | rain 24hr in | rain mn in | humidity % | barometer mb |
| 20260505124551 | 40 | 244 | 1.0 | 4.0 | 0.00 | 0.00 | 0.00 | 72 | 1010.4 |
| 20260505124047 | 39 | 0 | 1.0 | 4.0 | 0.00 | 0.00 | 0.00 | 72 | 1010.3 |
| 20260505123546 | 39 | 239 | 1.0 | 3.0 | 0.00 | 0.00 | 0.00 | 73 | 1010.2 |
| 20260505123055 | 38 | 251 | 0.0 | 8.0 | 0.00 | 0.00 | 0.00 | 75 | 1010.2 |
| 20260505122547 | 37 | 243 | 2.0 | 8.0 | 0.00 | 0.00 | 0.00 | 75 | 1010.0 |
| 20260505122046 | 37 | 240 | 4.0 | 8.0 | 0.00 | 0.00 | 0.00 | 75 | 1009.9 |
| 20260505121557 | 36 | 240 | 5.0 | 8.0 | 0.00 | 0.00 | 0.00 | 76 | 1009.8 |
| 20260505121046 | 36 | 243 | 4.0 | 6.0 | 0.00 | 0.00 | 0.00 | 76 | 1009.9 |
| 20260505120546 | 36 | 240 | 3.0 | 6.0 | 0.00 | 0.00 | 0.00 | 77 | 1009.8 |
| 20260505120111 | 35 | 239 | 2.0 | 6.0 | 0.00 | 0.00 | 0.00 | 77 | 1009.7 |
| 20260505115543 | 35 | 240 | 4.0 | 7.0 | 0.00 | 0.00 | 0.00 | 77 | 1009.8 |
| 20260505115047 | 34 | 236 | 4.0 | 7.0 | 0.00 | 0.00 | 0.00 | 77 | 1009.7 |
| 20260505114554 | 34 | 236 | 2.0 | 4.0 | 0.00 | 0.00 | 0.00 | 77 | 1009.6 |
| 20260505114044 | 34 | 254 | 1.0 | 2.0 | 0.00 | 0.00 | 0.00 | 77 | 1009.4 |
| 20260505113546 | 34 | 277 | 1.0 | 2.0 | 0.00 | 0.00 | 0.00 | 77 | 1009.3 |
| 20260505113052 | 34 | 277 | 0.0 | 2.0 | 0.00 | 0.00 | 0.00 | 77 | 1009.2 |
| 20260505112548 | 34 | 277 | 1.0 | 2.0 | 0.00 | 0.00 | 0.00 | 78 | 1009.3 |
| 20260505112047 | 34 | 277 | 1.0 | 2.0 | 0.00 | 0.00 | 0.00 | 77 | 1009.2 |
| 20260505111552 | 33 | 277 | 0.0 | 1.0 | 0.00 | 0.00 | 0.00 | 77 | 1009.2 |
| 20260505111044 | 33 | 0 | 0.0 | 1.0 | 0.00 | 0.00 | 0.00 | 77 | 1009.0 |
| 20260505110548 | 33 | 0 | 0.0 | 1.0 | 0.00 | 0.00 | 0.00 | 77 | 1008.9 |
| 20260505110110 | 33 | 0 | 0.0 | 1.0 | 0.00 | 0.00 | 0.00 | 77 | 1008.9 |
| 20260505102044 | 35 | 0 | 0.0 | 2.0 | 0.00 | 0.00 | 0.00 | 75 | 1008.6 |
| 20260505101551 | 35 | 277 | 0.0 | 1.0 | 0.00 | 0.00 | 0.00 | 75 | 1008.8 |
| 20260505101045 | 35 | 0 | 0.0 | 1.0 | 0.00 | 0.00 | 0.00 | 75 | 1008.5 |
| 20260505100544 | 35 | 0 | 0.0 | 0.0 | 0.00 | 0.00 | 0.00 | 75 | 1008.6 |
| 20260505100053 | 35 | 0 | 0.0 | 0.0 | 0.00 | 0.00 | 0.00 | 74 | 1008.7 |
| 20260505095546 | 35 | 0 | 0.0 | 1.0 | 0.00 | 0.00 | 0.00 | 74 | 1008.6 |
| 20260505095045 | 35 | 0 | 0.0 | 1.0 | 0.00 | 0.00 | 0.00 | 74 | 1008.6 |
| 20260505094550 | 35 | 0 | 0.0 | 1.0 | 0.00 | 0.00 | 0.00 | 74 | 1008.6 |
| 20260505094044 | 35 | 0 | 0.0 | 1.0 | 0.00 | 0.00 | 0.00 | 74 | 1008.5 |
| 20260505093544 | 35 | 0 | 0.0 | 1.0 | 0.00 | 0.00 | 0.00 | 74 | 1008.5 |
| 20260505093051 | 35 | 0 | 0.0 | 1.0 | 0.00 | 0.00 | 0.00 | 74 | 1008.4 |
| 20260505092543 | 35 | 0 | 0.0 | 2.0 | 0.00 | 0.00 | 0.00 | 74 | 1008.4 |
| 20260505092046 | 35 | 0 | 0.0 | 2.0 | 0.00 | 0.00 | 0.00 | 74 | 1008.3 |
| 20260505091553 | 35 | 277 | 0.0 | 3.0 | 0.00 | 0.00 | 0.00 | 74 | 1008.3 |
| 20260505091046 | 35 | 0 | 0.0 | 3.0 | 0.00 | 0.00 | 0.00 | 73 | 1008.2 |
| 20260505090543 | 35 | 277 | 1.0 | 2.0 | 0.00 | 0.00 | 0.00 | 73 | 1008.1 |
| 20260505090051 | 35 | 0 | 0.0 | 1.0 | 0.00 | 0.00 | 0.00 | 72 | 1008.0 |
| 20260505085546 | 35 | 277 | 0.0 | 0.0 | 0.00 | 0.00 | 0.00 | 73 | 1007.9 |
| 20260505085045 | 35 | 0 | 0.0 | 0.0 | 0.00 | 0.00 | 0.00 | 72 | 1008.0 |
| 20260505084604 | 36 | 0 | 0.0 | 1.0 | 0.00 | 0.00 | 0.00 | 72 | 1008.1 |
| 20260505084044 | 36 | 0 | 0.0 | 1.0 | 0.00 | 0.00 | 0.00 | 72 | 1008.1 |
| 20260505083544 | 36 | 0 | 0.0 | 1.0 | 0.00 | 0.00 | 0.00 | 72 | 1008.0 |
| 20260505083105 | 36 | 0 | 0.0 | 1.0 | 0.00 | 0.00 | 0.00 | 72 | 1008.0 |
| 20260505082547 | 36 | 0 | 0.0 | 1.0 | 0.00 | 0.00 | 0.00 | 72 | 1007.9 |
| 20260505082047 | 36 | 0 | 0.0 | 2.0 | 0.00 | 0.00 | 0.00 | 72 | 1007.8 |
| 20260505081554 | 36 | 0 | 0.0 | 2.0 | 0.00 | 0.00 | 0.00 | 71 | 1007.7 |
| 20260505081044 | 36 | 0 | 0.0 | 1.0 | 0.00 | 0.00 | 0.00 | 71 | 1007.7 |
| 20260505080546 | 36 | 0 | 0.0 | 0.0 | 0.00 | 0.00 | 0.00 | 71 | 1007.7 |
| 20260505080055 | 36 | 0 | 0.0 | 2.0 | 0.00 | 0.00 | 0.00 | 70 | 1007.7 |
| 20260505075551 | 37 | 0 | 0.0 | 2.0 | 0.00 | 0.00 | 0.00 | 69 | 1007.7 |
| 20260505075045 | 37 | 0 | 0.0 | 0.0 | 0.00 | 0.00 | 0.00 | 69 | 1007.6 |
| 20260505074558 | 37 | 0 | 0.0 | 1.0 | 0.00 | 0.00 | 0.00 | 69 | 1007.6 |
| 20260505074045 | 37 | 0 | 0.0 | 1.0 | 0.00 | 0.00 | 0.00 | 69 | 1007.5 |
| 20260505073545 | 37 | 0 | 0.0 | 2.0 | 0.00 | 0.00 | 0.00 | 68 | 1007.5 |
| 20260505073102 | 37 | 277 | 0.0 | 2.0 | 0.00 | 0.00 | 0.00 | 68 | 1007.6 |
| 20260505072544 | 38 | 0 | 0.0 | 1.0 | 0.00 | 0.00 | 0.00 | 68 | 1007.5 |
| 20260505072045 | 38 | 0 | 0.0 | 2.0 | 0.00 | 0.00 | 0.00 | 67 | 1007.6 |
| 20260505071555 | 38 | 0 | 0.0 | 2.0 | 0.00 | 0.00 | 0.00 | 67 | 1007.6 |
| 20260505071045 | 38 | 0 | 0.0 | 2.0 | 0.00 | 0.00 | 0.00 | 66 | 1007.6 |
| 20260505070544 | 38 | 0 | 0.0 | 2.0 | 0.00 | 0.00 | 0.00 | 66 | 1007.6 |
| 20260505070100 | 39 | 0 | 0.0 | 2.0 | 0.00 | 0.00 | 0.00 | 66 | 1007.5 |
| 20260505065547 | 39 | 277 | 0.0 | 2.0 | 0.00 | 0.00 | 0.00 | 66 | 1007.6 |
| 20260505065048 | 39 | 277 | 0.0 | 2.0 | 0.00 | 0.00 | 0.00 | 66 | 1007.6 |
| 20260505064636 | 39 | 0 | 0.0 | 2.0 | 0.00 | 0.00 | 0.00 | 66 | 1007.7 |
| 20260505064044 | 38 | 0 | 0.0 | 0.0 | 0.00 | 0.00 | 0.00 | 66 | 1007.7 |
| 20260505063544 | 39 | 0 | 0.0 | 1.0 | 0.00 | 0.00 | 0.00 | 66 | 1007.7 |
| 20260505063053 | 39 | 0 | 0.0 | 2.0 | 0.00 | 0.00 | 0.00 | 66 | 1007.7 |
| 20260505062545 | 39 | 0 | 0.0 | 2.0 | 0.00 | 0.00 | 0.00 | 65 | 1007.7 |
| 20260505062044 | 39 | 277 | 0.0 | 2.0 | 0.00 | 0.00 | 0.00 | 65 | 1007.7 |
| 20260505061555 | 39 | 0 | 0.0 | 3.0 | 0.00 | 0.00 | 0.00 | 65 | 1007.7 |
| 20260505061044 | 39 | 277 | 1.0 | 3.0 | 0.00 | 0.00 | 0.00 | 65 | 1007.7 |
| 20260505060544 | 40 | 279 | 2.0 | 3.0 | 0.00 | 0.00 | 0.00 | 64 | 1007.6 |
| 20260505060058 | 40 | 285 | 1.0 | 3.0 | 0.00 | 0.00 | 0.00 | 64 | 1007.7 |
| 20260505055546 | 39 | 285 | 1.0 | 2.0 | 0.00 | 0.00 | 0.00 | 64 | 1007.7 |
| 20260505055045 | 39 | 275 | 1.0 | 2.0 | 0.00 | 0.00 | 0.00 | 65 | 1007.7 |
| 20260505054553 | 39 | 264 | 0.0 | 2.0 | 0.00 | 0.00 | 0.00 | 65 | 1007.6 |
| 20260505054044 | 39 | 0 | 0.0 | 0.0 | 0.00 | 0.00 | 0.00 | 65 | 1007.6 |
| 20260505053544 | 40 | 0 | 0.0 | 1.0 | 0.00 | 0.00 | 0.00 | 64 | 1007.7 |
| 20260505053057 | 40 | 0 | 0.0 | 1.0 | 0.00 | 0.00 | 0.00 | 64 | 1007.7 |
| 20260505052545 | 40 | 0 | 0.0 | 1.0 | 0.00 | 0.00 | 0.00 | 64 | 1007.6 |
| 20260505052045 | 40 | 0 | 0.0 | 1.0 | 0.00 | 0.00 | 0.00 | 62 | 1007.7 |
| 20260505051552 | 40 | 0 | 0.0 | 0.0 | 0.00 | 0.00 | 0.00 | 62 | 1007.7 |
| 20260505051044 | 40 | 0 | 0.0 | 2.0 | 0.00 | 0.00 | 0.00 | 62 | 1007.7 |
| 20260505050544 | 40 | 0 | 0.0 | 2.0 | 0.00 | 0.00 | 0.00 | 62 | 1007.6 |
| 20260505041556 | 42 | 233 | 1.0 | 3.0 | 0.00 | 0.00 | 0.00 | 57 | 1007.5 |
| 20260505041047 | 42 | 236 | 1.0 | 3.0 | 0.00 | 0.00 | 0.00 | 57 | 1007.4 |
| 20260505040547 | 42 | 247 | 1.0 | 2.0 | 0.00 | 0.00 | 0.00 | 57 | 1007.4 |
| 20260505035544 | 42 | 0 | 0.0 | 1.0 | 0.00 | 0.00 | 0.00 | 57 | 1007.5 |
| 20260505035045 | 42 | 0 | 0.0 | 0.0 | 0.00 | 0.00 | 0.00 | 57 | 1007.5 |
| 20260505034606 | 42 | 0 | 0.0 | 0.0 | 0.00 | 0.00 | 0.00 | 57 | 1007.4 |
| 20260505034045 | 43 | 0 | 0.0 | 0.0 | 0.00 | 0.00 | 0.00 | 56 | 1007.2 |
| 20260505033545 | 43 | 0 | 0.0 | 0.0 | 0.00 | 0.00 | 0.00 | 55 | 1007.3 |
| 20260505033051 | 44 | 0 | 0.0 | 1.0 | 0.00 | 0.00 | 0.00 | 54 | 1007.4 |
| 20260505032545 | 44 | 0 | 0.0 | 1.0 | 0.00 | 0.00 | 0.00 | 55 | 1007.3 |
| 20260505032046 | 44 | 0 | 0.0 | 1.0 | 0.00 | 0.00 | 0.00 | 56 | 1007.3 |
| 20260505031552 | 44 | 0 | 0.0 | 1.0 | 0.00 | 0.00 | 0.00 | 55 | 1007.4 |
| 20260505031046 | 44 | 0 | 0.0 | 1.0 | 0.00 | 0.00 | 0.00 | 55 | 1007.3 |
| 20260505030550 | 44 | 0 | 0.0 | 1.0 | 0.00 | 0.00 | 0.00 | 54 | 1007.3 |
| 20260505030101 | 44 | 0 | 0.0 | 1.0 | 0.00 | 0.00 | 0.00 | 54 | 1007.2 |
| 20260505025544 | 44 | 0 | 0.0 | 1.0 | 0.00 | 0.00 | 0.00 | 54 | 1007.3 |
| 20260505025046 | 45 | 0 | 0.0 | 1.0 | 0.00 | 0.00 | 0.00 | 54 | 1007.3 |
| 20260505024608 | 45 | 0 | 0.0 | 1.0 | 0.00 | 0.00 | 0.00 | 53 | 1007.3 |
| 20260505024045 | 45 | 0 | 0.0 | 1.0 | 0.00 | 0.00 | 0.00 | 52 | 1007.2 |
| 20260505023545 | 45 | 0 | 0.0 | 1.0 | 0.00 | 0.00 | 0.00 | 52 | 1007.2 |
| 20260505023054 | 45 | 0 | 0.0 | 1.0 | 0.00 | 0.00 | 0.00 | 51 | 1007.2 |
| 20260505022545 | 45 | 0 | 0.0 | 1.0 | 0.00 | 0.00 | 0.00 | 51 | 1007.0 |
| 20260505022045 | 45 | 0 | 0.0 | 1.0 | 0.00 | 0.00 | 0.00 | 50 | 1007.0 |
| 20260505021554 | 46 | 0 | 0.0 | 1.0 | 0.00 | 0.00 | 0.00 | 50 | 1006.8 |
| 20260505021045 | 46 | 0 | 0.0 | 1.0 | 0.00 | 0.00 | 0.00 | 49 | 1006.8 |
| 20260505020544 | 46 | 0 | 0.0 | 2.0 | 0.00 | 0.00 | 0.00 | 48 | 1006.7 |
| 20260505020107 | 47 | 315 | 0.0 | 2.0 | 0.00 | 0.00 | 0.00 | 47 | 1006.6 |
| 20260505015545 | 47 | 0 | 0.0 | 4.0 | 0.00 | 0.00 | 0.00 | 47 | 1006.6 |
| 20260505015048 | 47 | 0 | 0.0 | 4.0 | 0.00 | 0.00 | 0.00 | 46 | 1006.5 |
| 20260505014558 | 48 | 350 | 0.0 | 3.0 | 0.00 | 0.00 | 0.00 | 46 | 1006.5 |
| 20260505014044 | 48 | 296 | 0.0 | 3.0 | 0.00 | 0.00 | 0.00 | 45 | 1006.4 |
| 20260505013545 | 49 | 0 | 0.0 | 6.0 | 0.00 | 0.00 | 0.00 | 45 | 1006.4 |
| 20260505013102 | 49 | 262 | 1.0 | 7.0 | 0.00 | 0.00 | 0.00 | 44 | 1006.3 |
| 20260505012546 | 49 | 14 | 2.0 | 7.0 | 0.00 | 0.00 | 0.00 | 43 | 1006.3 |
| 20260505012044 | 50 | 315 | 1.0 | 6.0 | 0.00 | 0.00 | 0.00 | 42 | 1006.2 |
| 20260505011603 | 50 | 330 | 2.0 | 7.0 | 0.00 | 0.00 | 0.00 | 42 | 1006.1 |
| 20260505011047 | 51 | 267 | 2.0 | 8.0 | 0.00 | 0.00 | 0.00 | 41 | 1006.2 |
| 20260505010545 | 51 | 279 | 3.0 | 8.0 | 0.00 | 0.00 | 0.00 | 41 | 1006.0 |
| 20260505010110 | 51 | 293 | 2.0 | 6.0 | 0.00 | 0.00 | 0.00 | 41 | 1006.0 |
| 20260505005544 | 51 | 313 | 2.0 | 7.0 | 0.00 | 0.00 | 0.00 | 42 | 1005.9 |
| 20260505005045 | 52 | 16 | 1.0 | 7.0 | 0.00 | 0.00 | 0.00 | 41 | 1005.9 |
| 20260505004622 | 52 | 290 | 2.0 | 7.0 | 0.00 | 0.00 | 0.00 | 41 | 1005.7 |
| 20260505004043 | 52 | 204 | 2.0 | 13.0 | 0.00 | 0.00 | 0.00 | 39 | 1005.7 |
| 20260505003544 | 53 | 269 | 5.0 | 13.0 | 0.00 | 0.00 | 0.00 | 38 | 1005.6 |
| 20260505003058 | 53 | 329 | 2.0 | 7.0 | 0.00 | 0.00 | 0.00 | 39 | 1005.5 |
| 20260505002544 | 53 | 275 | 2.0 | 7.0 | 0.00 | 0.00 | 0.00 | 39 | 1005.4 |
| 20260505002046 | 54 | 284 | 2.0 | 10.0 | 0.00 | 0.00 | 0.00 | 39 | 1005.4 |
| 20260505001555 | 54 | 324 | 2.0 | 10.0 | 0.00 | 0.00 | 0.00 | 38 | 1005.2 |
| 20260505001047 | 54 | 273 | 4.0 | 8.0 | 0.00 | 0.00 | 0.00 | 38 | 1005.1 |
| 20260505000544 | 54 | 283 | 2.0 | 9.0 | 0.00 | 0.00 | 0.00 | 38 | 1005.1 |
| 20260505000104 | 54 | 274 | 3.0 | 9.0 | 0.00 | 0.00 | 0.00 | 39 | 1005.1 |
| 20260504235544 | 55 | 28 | 2.0 | 9.0 | 0.00 | 0.00 | 0.00 | 39 | 1005.0 |
| 20260504235044 | 55 | 308 | 4.0 | 9.0 | 0.00 | 0.00 | 0.00 | 38 | 1005.1 |
| 20260504234555 | 56 | 284 | 2.0 | 8.0 | 0.00 | 0.00 | 0.00 | 38 | 1005.1 |
| 20260504234045 | 56 | 289 | 2.0 | 10.0 | 0.00 | 0.00 | 0.00 | 38 | 1005.1 |
| 20260504233544 | 56 | 222 | 3.0 | 8.0 | 0.00 | 0.00 | 0.00 | 37 | 1005.0 |
| 20260504233054 | 56 | 25 | 2.0 | 8.0 | 0.00 | 0.00 | 0.00 | 38 | 1005.0 |
| 20260504232546 | 57 | 294 | 3.0 | 8.0 | 0.00 | 0.00 | 0.00 | 39 | 1004.9 |
| 20260504232044 | 57 | 345 | 2.0 | 9.0 | 0.00 | 0.00 | 0.00 | 39 | 1004.8 |
| 20260504231620 | 57 | 293 | 4.0 | 9.0 | 0.00 | 0.00 | 0.00 | 40 | 1004.8 |
| 20260504231044 | 56 | 315 | 2.0 | 9.0 | 0.00 | 0.00 | 0.00 | 40 | 1004.8 |
| 20260504230543 | 57 | 292 | 4.0 | 8.0 | 0.00 | 0.00 | 0.00 | 40 | 1004.9 |
| 20260504230053 | 56 | 294 | 3.0 | 10.0 | 0.00 | 0.00 | 0.00 | 41 | 1004.8 |
| 20260504225543 | 56 | 287 | 2.0 | 13.0 | 0.00 | 0.00 | 0.00 | 40 | 1004.8 |
| 20260504225047 | 57 | 271 | 5.0 | 13.0 | 0.00 | 0.00 | 0.00 | 40 | 1004.8 |
| 20260504224554 | 57 | 320 | 2.0 | 9.0 | 0.00 | 0.00 | 0.00 | 41 | 1004.7 |
| 20260504224044 | 57 | 300 | 3.0 | 9.0 | 0.00 | 0.00 | 0.00 | 40 | 1004.8 |
| 20260504223547 | 57 | 301 | 3.0 | 11.0 | 0.00 | 0.00 | 0.00 | 39 | 1004.5 |
| 20260504223054 | 58 | 278 | 4.0 | 11.0 | 0.00 | 0.00 | 0.00 | 39 | 1004.6 |
| 20260504222545 | 58 | 266 | 4.0 | 12.0 | 0.00 | 0.00 | 0.00 | 40 | 1004.4 |
| 20260504222044 | 59 | 271 | 4.0 | 12.0 | 0.00 | 0.00 | 0.00 | 39 | 1004.3 |
| 20260504221631 | 60 | 280 | 5.0 | 12.0 | 0.00 | 0.00 | 0.00 | 39 | 1004.3 |
| 20260504221045 | 60 | 295 | 4.0 | 12.0 | 0.00 | 0.00 | 0.00 | 39 | 1004.0 |
| 20260504220545 | 60 | 350 | 4.0 | 12.0 | 0.00 | 0.00 | 0.00 | 39 | 1003.9 |
| 20260504220054 | 60 | 311 | 5.0 | 12.0 | 0.00 | 0.00 | 0.00 | 39 | 1003.7 |
| 20260504215546 | 60 | 295 | 3.0 | 10.0 | 0.00 | 0.00 | 0.00 | 40 | 1003.5 |
| 20260504215045 | 61 | 304 | 4.0 | 10.0 | 0.00 | 0.00 | 0.00 | 38 | 1003.6 |
| 20260504214555 | 61 | 282 | 4.0 | 12.0 | 0.00 | 0.00 | 0.00 | 37 | 1003.5 |
| 20260504214046 | 62 | 309 | 5.0 | 12.0 | 0.00 | 0.00 | 0.00 | 37 | 1003.5 |
| 20260504213544 | 63 | 271 | 4.0 | 11.0 | 0.00 | 0.00 | 0.00 | 37 | 1003.3 |
| 20260504213059 | 63 | 315 | 5.0 | 11.0 | 0.00 | 0.00 | 0.00 | 36 | 1003.4 |
| 20260504212545 | 63 | 338 | 2.0 | 10.0 | 0.00 | 0.00 | 0.00 | 39 | 1003.3 |
| 20260504212044 | 63 | 286 | 4.0 | 10.0 | 0.00 | 0.00 | 0.00 | 38 | 1003.2 |
| 20260504211555 | 63 | 284 | 3.0 | 10.0 | 0.00 | 0.00 | 0.00 | 35 | 1003.3 |
| 20260504211044 | 63 | 288 | 4.0 | 10.0 | 0.00 | 0.00 | 0.00 | 35 | 1003.2 |
| 20260504210544 | 63 | 267 | 4.0 | 9.0 | 0.00 | 0.00 | 0.00 | 37 | 1003.1 |
| 20260504210054 | 63 | 284 | 3.0 | 9.0 | 0.00 | 0.00 | 0.00 | 38 | 1003.0 |
| 20260504205544 | 63 | 280 | 4.0 | 10.0 | 0.00 | 0.00 | 0.00 | 37 | 1003.0 |
| 20260504205046 | 63 | 9 | 4.0 | 10.0 | 0.00 | 0.00 | 0.00 | 35 | 1003.0 |
| 20260504204555 | 63 | 281 | 4.0 | 10.0 | 0.00 | 0.00 | 0.00 | 34 | 1003.0 |
| 20260504204045 | 63 | 248 | 5.0 | 10.0 | 0.00 | 0.00 | 0.00 | 34 | 1003.0 |
| 20260504203544 | 63 | 291 | 4.0 | 10.0 | 0.00 | 0.00 | 0.00 | 35 | 1003.0 |
| 20260504203053 | 63 | 271 | 3.0 | 11.0 | 0.00 | 0.00 | 0.00 | 37 | 1003.1 |
| 20260504202544 | 62 | 285 | 6.0 | 11.0 | 0.00 | 0.00 | 0.00 | 35 | 1003.0 |
| 20260504202046 | 62 | 284 | 4.0 | 11.0 | 0.00 | 0.00 | 0.00 | 35 | 1003.0 |
| 20260504201555 | 62 | 328 | 7.0 | 11.0 | 0.00 | 0.00 | 0.00 | 35 | 1003.1 |
| 20260504201043 | 62 | 294 | 6.0 | 11.0 | 0.00 | 0.00 | 0.00 | 35 | 1003.0 |
| 20260504200543 | 62 | 285 | 5.0 | 11.0 | 0.00 | 0.00 | 0.00 | 35 | 1003.0 |
| 20260504200055 | 64 | 275 | 5.0 | 13.0 | 0.00 | 0.00 | 0.00 | 34 | 1003.0 |
| 20260504195544 | 64 | 280 | 6.0 | 13.0 | 0.00 | 0.00 | 0.00 | 32 | 1003.0 |
| 20260504195047 | 64 | 285 | 6.0 | 13.0 | 0.00 | 0.00 | 0.00 | 34 | 1003.0 |
| 20260504194602 | 63 | 207 | 7.0 | 13.0 | 0.00 | 0.00 | 0.00 | 34 | 1003.0 |
| 20260504194047 | 63 | 304 | 6.0 | 13.0 | 0.00 | 0.00 | 0.00 | 34 | 1003.0 |
| 20260504193547 | 63 | 5 | 6.0 | 13.0 | 0.00 | 0.00 | 0.00 | 34 | 1003.0 |
| 20260504193053 | 63 | 298 | 8.0 | 13.0 | 0.00 | 0.00 | 0.00 | 33 | 1002.9 |
| 20260504192547 | 63 | 301 | 6.0 | 12.0 | 0.00 | 0.00 | 0.00 | 35 | 1002.8 |
| 20260504192048 | 63 | 17 | 5.0 | 14.0 | 0.00 | 0.00 | 0.00 | 35 | 1002.7 |
| 20260504191618 | 63 | 286 | 8.0 | 14.0 | 0.00 | 0.00 | 0.00 | 35 | 1002.8 |
| 20260504191044 | 63 | 293 | 5.0 | 11.0 | 0.00 | 0.00 | 0.00 | 35 | 1002.7 |
| 20260504190547 | 63 | 281 | 5.0 | 13.0 | 0.00 | 0.00 | 0.00 | 34 | 1002.5 |
| 20260504190053 | 63 | 266 | 5.0 | 13.0 | 0.00 | 0.00 | 0.00 | 37 | 1002.4 |
| 20260504185546 | 63 | 267 | 6.0 | 13.0 | 0.00 | 0.00 | 0.00 | 33 | 1002.4 |
| 20260504185043 | 63 | 304 | 4.0 | 11.0 | 0.00 | 0.00 | 0.00 | 34 | 1002.4 |
| 20260504184605 | 63 | 290 | 6.0 | 11.0 | 0.00 | 0.00 | 0.00 | 32 | 1002.3 |
| 20260504184047 | 63 | 308 | 7.0 | 13.0 | 0.00 | 0.00 | 0.00 | 31 | 1002.2 |
| 20260504183547 | 63 | 284 | 7.0 | 13.0 | 0.00 | 0.00 | 0.00 | 31 | 1002.3 |
| 20260504183054 | 63 | 246 | 7.0 | 13.0 | 0.00 | 0.00 | 0.00 | 30 | 1002.1 |
| 20260504182548 | 63 | 286 | 6.0 | 12.0 | 0.00 | 0.00 | 0.00 | 31 | 1002.2 |
| 20260504182047 | 63 | 329 | 5.0 | 11.0 | 0.00 | 0.00 | 0.00 | 33 | 1002.0 |
| 20260504181556 | 63 | 290 | 6.0 | 11.0 | 0.00 | 0.00 | 0.00 | 31 | 1002.1 |
| 20260504181045 | 63 | 288 | 6.0 | 11.0 | 0.00 | 0.00 | 0.00 | 32 | 1001.9 |
| 20260504180547 | 63 | 285 | 6.0 | 11.0 | 0.00 | 0.00 | 0.00 | 33 | 1001.9 |
| 20260504180058 | 63 | 288 | 6.0 | 11.0 | 0.00 | 0.00 | 0.00 | 33 | 1002.0 |
| 20260504175546 | 63 | 275 | 5.0 | 12.0 | 0.00 | 0.00 | 0.00 | 32 | 1001.9 |
| 20260504175045 | 62 | 269 | 6.0 | 12.0 | 0.00 | 0.00 | 0.00 | 31 | 1001.8 |
| 20260504174552 | 63 | 286 | 6.0 | 11.0 | 0.00 | 0.00 | 0.00 | 34 | 1001.9 |
| 20260504174048 | 63 | 300 | 6.0 | 11.0 | 0.00 | 0.00 | 0.00 | 35 | 1001.7 |
| 20260504173548 | 63 | 292 | 7.0 | 13.0 | 0.00 | 0.00 | 0.00 | 35 | 1001.6 |
| 20260504173054 | 63 | 289 | 6.0 | 13.0 | 0.00 | 0.00 | 0.00 | 38 | 1001.5 |
| 20260504172544 | 63 | 324 | 6.0 | 14.0 | 0.00 | 0.00 | 0.00 | 35 | 1001.6 |
| 20260504172047 | 63 | 279 | 6.0 | 14.0 | 0.00 | 0.00 | 0.00 | 36 | 1001.4 |
| 20260504171553 | 63 | 251 | 5.0 | 12.0 | 0.00 | 0.00 | 0.00 | 38 | 1001.3 |
| 20260504171045 | 63 | 291 | 5.0 | 12.0 | 0.00 | 0.00 | 0.00 | 40 | 1001.2 |
| 20260504170545 | 63 | 279 | 4.0 | 11.0 | 0.00 | 0.00 | 0.00 | 41 | 1001.2 |
| 20260504151047 | 62 | 319 | 7.0 | 13.0 | 0.00 | 0.00 | 0.00 | 43 | 1000.3 |
| 20260504150547 | 61 | 277 | 4.0 | 9.0 | 0.00 | 0.00 | 0.00 | 44 | 1000.4 |
| 20260504141049 | 59 | 289 | 4.0 | 8.0 | 0.00 | 0.00 | 0.00 | 48 | 1000.1 |
| 20260504140546 | 59 | 286 | 3.0 | 8.0 | 0.00 | 0.00 | 0.00 | 47 | 1000.0 |
| 20260504140103 | 59 | 304 | 4.0 | 9.0 | 0.00 | 0.00 | 0.00 | 48 | 1000.0 |
| 20260504130544 | 59 | 302 | 3.0 | 7.0 | 0.00 | 0.00 | 0.00 | 55 | 999.4 |